[[{"header":{"parameterUnit":"m.s-1","parameterCategory":1,"la1":30.2991,"la2":30.254,"lo1":-89.0895,"lo2":-89.0444,"dy":0.0017,"dx":0.0017,"nx":28,"ny":28,"refTime":"2025-02-27T03:00:00:Z","depth":0,"parameterNumber":2,"parameterNumberName":"U-component_of_WINDS"},"data":[0,0,0,0,0,0,0,0,0,0,0,0,0,0,0,0,0,0,0,0,0,0,0,0,0,0,0,0,0,0,0,0,0,0,0,0,0,0,0,0,0,0,0,0,0,0,0,0,0,0,0,0,0,0,0,0,0,0,1.9998,1.9999,0,2.0061,2.0062,2.0063,2.0047,2.0046,2.0045,2.0043,2.0109,2.0111,2.0114,0,0,0,0,0,0,0,0,0,0,0,0,0,1.9864,1.9867,1.9998,1.9999,2.0,2.0061,2.0062,2.0063,2.0047,2.0046,2.0044,2.0043,2.0108,2.0111,2.0114,0,0,0,0,0,0,0,0,0,0,0,0,0,1.9924,1.9868,1.9998,1.9999,2.0,2.0061,2.0062,2.0063,2.0048,2.0046,2.0044,2.0042,2.0106,2.0111,2.0115,2.0178,0,0,2.0128,2.013,0,0,0,0,0,0,0,0,1.9921,1.9929,1.9998,1.9999,2.0,2.0044,2.0039,2.0102,2.0048,2.003,2.0043,2.0041,2.0089,2.0094,2.011,2.0181,2.0184,2.0128,2.0131,2.0133,2.0134,0,0,0,0,0,0,0,1.9917,1.9927,2.0023,1.9999,2.0,1.9997,2.0003,2.0051,2.0069,2.0031,2.003,2.0038,2.0089,2.0106,2.0112,2.0185,2.0128,2.0132,2.0135,2.0137,2.0312,2.0314,0,0,0,0,0,0,1.9912,1.9923,2.0021,2.0025,1.9955,2.0001,2.0008,2.0032,2.0068,2.0072,2.0039,2.0037,2.01,2.0107,2.0114,2.019,2.0133,2.0137,2.0139,2.031,2.0312,2.0314,0,0,0,0,0,0,1.9909,1.9921,2.0018,1.9974,1.9986,2.0005,2.0032,2.0034,2.0051,2.0074,2.0077,2.0053,2.0098,2.0108,2.0162,2.0192,2.0139,2.0143,2.0307,2.031,2.0313,2.0344,0,0,0,0,0,0,1.9905,1.992,1.9944,1.9974,1.9988,2.0066,2.0034,2.0037,2.0059,2.0056,2.0089,2.0092,2.0098,2.0156,2.0167,2.0197,2.0146,2.0305,2.0309,2.0312,2.0341,2.0348,2.0354,0,0,0,0,0,1.9901,1.995,1.9945,1.9957,2.0019,2.0068,2.0076,2.0081,2.0061,2.0086,2.0101,2.0091,2.0188,2.0162,2.0174,2.0206,2.0303,2.0307,2.0312,2.0337,2.0346,2.0354,0,0,0,0,0,0,1.9923,1.9954,1.9949,2.001,2.0036,2.0065,2.0096,2.009,2.0123,2.0119,2.0124,2.0132,2.0187,2.0202,2.0173,2.0269,2.0242,2.025,2.0258,2.0266,2.0273,2.0268,2.015,0,0,0,0,0,1.9935,1.9972,1.9997,2.0049,2.0062,2.0077,2.0098,2.01,2.0127,2.0138,2.0157,2.0184,2.022,2.0244,2.0279,2.0343,2.0349,2.0371,2.0378,2.0383,2.0389,2.0424,2.0434,2.033,2.033,2.0329,0,0,1.9961,1.9982,2.0005,2.0054,2.0074,2.0112,2.0086,2.0128,2.0156,2.0145,2.0197,2.0212,2.0243,2.0302,2.0329,2.0316,2.042,2.0389,2.0393,2.0397,2.043,2.044,2.0448,2.0333,2.0332,2.0332,0,0,2.0026,2.0046,2.0091,2.0112,2.0143,2.0153,2.0164,2.0193,2.0203,2.0255,2.0248,2.0282,2.0344,2.0366,2.0386,2.046,2.0452,2.0471,2.0507,2.054,2.0548,2.0556,2.0582,2.0591,2.0477,2.0477,2.0477,0,2.0054,2.011,2.0115,2.0157,2.0179,2.017,2.0216,2.0236,2.0277,2.0293,2.0277,2.0356,2.0376,2.044,2.0458,2.0474,2.0487,2.0467,2.0547,2.0554,2.0561,2.0586,2.0596,2.0479,2.0479,2.0479,2.0478,0,2.0142,2.0182,2.0215,2.0254,2.028,2.0323,2.0335,2.036,2.036,2.0371,2.0425,2.0449,2.0488,2.0503,2.0504,2.0568,2.0559,2.0545,2.0518,2.0573,2.0596,2.0606,2.0482,2.0481,2.0481,2.048,0,0,2.0224,2.0265,2.0277,2.0295,2.0329,2.036,2.0403,2.0441,2.0463,2.0492,2.0528,2.0581,2.0569,2.0591,2.0594,2.0623,2.068,2.0606,2.0607,2.0619,2.0752,2.0761,2.0772,2.0675,2.0677,2.0679,2.0749,0,2.0292,2.0368,2.0373,2.0442,2.0479,2.0471,2.0509,2.0534,2.0546,2.0578,2.0591,2.0629,2.061,2.0623,2.0652,2.0667,2.0707,2.0662,2.0709,2.0711,2.0701,2.0785,2.0795,2.086,2.0758,2.076,2.0761,0,2.0382,2.0413,2.0485,2.0514,2.0529,2.0563,2.0598,2.063,2.0658,2.0664,2.0689,2.0688,2.0732,2.0704,2.0765,2.0735,2.0754,2.0764,2.0767,2.0771,2.0739,2.0791,2.0881,2.0891,2.0776,2.0775,2.0773,0,2.0433,2.0493,2.0544,2.056,2.0595,2.0618,2.0634,2.066,2.0683,2.0714,2.0729,2.0765,2.0785,2.0813,2.0821,2.08,2.0882,2.0854,2.0889,2.0888,2.0906,2.0904,2.1,2.0919,2.0919,2.0919,2.0919,0,2.0508,2.0553,2.0568,2.0599,2.0648,2.0655,2.0703,2.0718,2.0741,2.0775,2.0772,2.0803,2.0813,2.0847,2.0853,2.0903,2.0912,2.0918,2.092,2.0918,2.0918,2.0931,2.0926,2.0922,2.0921,2.0921,2.092,0,2.0574,2.0586,2.0641,2.0669,2.0678,2.0713,2.0737,2.0767,2.0778,2.0821,2.0832,2.0849,2.0889,2.09,2.0948,2.0952,2.101,2.1008,2.1001,2.1,2.1034,2.103,2.1141,2.1156,2.1066,2.1067,2.1067,0,2.0621,2.0655,2.0687,2.0709,2.0726,2.0762,2.0785,2.0793,2.0817,2.0852,2.0878,2.0917,2.0948,2.1011,2.1028,2.1065,2.1062,2.1099,2.1068,2.1065,2.1062,2.106,2.1063,2.1104,2.1105,2.1106,2.1107,0,2.0703,2.0707,2.0741,2.0776,2.0804,2.0832,2.0859,2.0878,2.0889,2.0916,2.0957,2.0981,2.1029,2.1068,2.1105,2.1121,2.1116,2.1116,2.1126,2.1125,2.1119,2.1122,2.1016,2.1114,2.1113,2.1113,2.1112,2.1112,2.0761,2.079,2.0818,2.0855,2.0876,2.0901,2.0931,2.0946,2.0979,2.1019,2.1022,2.1065,2.1092,2.1141,2.1159,2.1193,2.1183,2.1197,2.12,2.1204,2.1206,2.1114,2.12,2.12,2.12,2.12,2.12,0,2.0842,2.0859,2.0893,2.0931,2.0961,2.0953,2.0983,2.1008,2.1046,2.1072,2.1103,2.1149,2.1187,2.1207,2.1244,2.1267,2.1266,2.1277,2.1275,2.1279,2.1214,2.1202,2.1277,2.1277,2.1277,2.1277,2.1277,2.1277,2.0888,2.0938,2.0945,2.1005,2.1022,2.1064,2.1082,2.1105,2.1126,2.1178,2.1209,2.1221,2.1245,2.1284,2.1318,2.1323,2.1336,2.1348,2.1352,2.1291,2.1283,2.1276,2.1264,2.1351,2.1352,2.1414,2.1414,2.1415]},{"header":{"parameterUnit":"m.s-1","parameterCategory":1,"la1":30.2991,"la2":30.254,"lo1":-89.0895,"lo2":-89.0444,"dy":0.0017,"dx":0.0017,"nx":28,"ny":28,"refTime":"2025-02-27T03:00:00:Z","depth":0,"parameterNumber":3,"parameterNumberName":"V-component_of_WINDS"},"data":[0,0,0,0,0,0,0,0,0,0,0,0,0,0,0,0,0,0,0,0,0,0,0,0,0,0,0,0,0,0,0,0,0,0,0,0,0,0,0,0,0,0,0,0,0,0,0,0,0,0,0,0,0,0,0,0,0,0,-0.2882,-0.2883,0,-0.2959,-0.2959,-0.296,-0.299,-0.299,-0.2989,-0.2989,-0.307,-0.3072,-0.3075,0,0,0,0,0,0,0,0,0,0,0,0,0,-0.2763,-0.2765,-0.2882,-0.2883,-0.2884,-0.2958,-0.2959,-0.2961,-0.299,-0.299,-0.2989,-0.2989,-0.3069,-0.3072,-0.3075,0,0,0,0,0,0,0,0,0,0,0,0,0,-0.2824,-0.2765,-0.2882,-0.2907,-0.291,-0.2958,-0.296,-0.2961,-0.299,-0.299,-0.2989,-0.2989,-0.3068,-0.3072,-0.3075,-0.3104,0,0,-0.3086,-0.3088,0,0,0,0,0,0,0,0,-0.2821,-0.2829,-0.2902,-0.2906,-0.2909,-0.2964,-0.2947,-0.3009,-0.299,-0.296,-0.2989,-0.2989,-0.3035,-0.3042,-0.3057,-0.3108,-0.3111,-0.3086,-0.3089,-0.309,-0.3091,0,0,0,0,0,0,0,-0.2817,-0.2826,-0.2912,-0.2904,-0.2908,-0.2916,-0.2924,-0.2959,-0.2999,-0.2962,-0.2965,-0.2973,-0.3037,-0.3053,-0.3059,-0.3113,-0.3086,-0.309,-0.3092,-0.3093,-0.3192,-0.3193,0,0,0,0,0,0,-0.2808,-0.2822,-0.291,-0.2914,-0.2863,-0.2918,-0.2927,-0.2947,-0.2998,-0.3006,-0.2973,-0.2974,-0.3047,-0.3055,-0.3062,-0.31,-0.309,-0.3093,-0.3096,-0.3192,-0.3192,-0.3193,0,0,0,0,0,0,-0.2805,-0.2815,-0.2907,-0.2869,-0.2881,-0.292,-0.2942,-0.2949,-0.2965,-0.3007,-0.3014,-0.2983,-0.3047,-0.3057,-0.3093,-0.3103,-0.3095,-0.3098,-0.3191,-0.3192,-0.3192,-0.3175,0,0,0,0,0,0,-0.2801,-0.2814,-0.2825,-0.2869,-0.2883,-0.2936,-0.2943,-0.295,-0.2971,-0.2973,-0.3017,-0.3024,-0.3048,-0.3088,-0.3097,-0.3108,-0.3101,-0.319,-0.3191,-0.3192,-0.3175,-0.3175,-0.3175,0,0,0,0,0,-0.2797,-0.2817,-0.2825,-0.2836,-0.2897,-0.2937,-0.2945,-0.2971,-0.2971,-0.2983,-0.301,-0.3023,-0.31,-0.3091,-0.3102,-0.3114,-0.319,-0.3191,-0.3192,-0.3175,-0.3175,-0.3175,0,0,0,0,0,0,-0.2774,-0.2823,-0.2833,-0.2868,-0.2898,-0.2941,-0.2957,-0.297,-0.3001,-0.3002,-0.3033,-0.3043,-0.3077,-0.3099,-0.3089,-0.3145,-0.3146,-0.3149,-0.3129,-0.313,-0.313,-0.3124,-0.3104,0,0,0,0,0,-0.2773,-0.28,-0.2842,-0.2869,-0.2883,-0.2917,-0.2935,-0.2953,-0.2985,-0.2999,-0.3028,-0.306,-0.3092,-0.3112,-0.3143,-0.3178,-0.3189,-0.3191,-0.3191,-0.3191,-0.3194,-0.3215,-0.3217,-0.3196,-0.3196,-0.3196,0,0,-0.2771,-0.2801,-0.2817,-0.2865,-0.289,-0.2918,-0.2928,-0.2957,-0.2979,-0.3003,-0.304,-0.3062,-0.31,-0.3136,-0.3153,-0.3155,-0.3202,-0.3193,-0.3192,-0.3195,-0.3216,-0.3218,-0.322,-0.3197,-0.3197,-0.3197,0,0,-0.2782,-0.2807,-0.2833,-0.2858,-0.2895,-0.2918,-0.2924,-0.2966,-0.2982,-0.3019,-0.3038,-0.3064,-0.3118,-0.3144,-0.3164,-0.3185,-0.3199,-0.3195,-0.3196,-0.3216,-0.3217,-0.3219,-0.3227,-0.323,-0.3197,-0.3197,-0.3197,0,-0.2775,-0.2818,-0.2844,-0.2872,-0.2893,-0.2916,-0.2942,-0.2966,-0.3012,-0.3026,-0.3028,-0.3095,-0.3122,-0.3165,-0.317,-0.3186,-0.3195,-0.319,-0.3215,-0.3217,-0.3219,-0.3227,-0.323,-0.3196,-0.3197,-0.3197,-0.3197,0,-0.2808,-0.2837,-0.2853,-0.2897,-0.2919,-0.2947,-0.2978,-0.2998,-0.3013,-0.3036,-0.3073,-0.3107,-0.3145,-0.3157,-0.3172,-0.3202,-0.3202,-0.3208,-0.3211,-0.3219,-0.3228,-0.3231,-0.3195,-0.3196,-0.3196,-0.3196,0,0,-0.2807,-0.2865,-0.287,-0.2891,-0.2934,-0.2958,-0.2986,-0.3023,-0.304,-0.3071,-0.3097,-0.3141,-0.3148,-0.3171,-0.319,-0.3207,-0.3223,-0.3212,-0.3213,-0.3214,-0.3259,-0.3254,-0.3258,-0.3232,-0.3233,-0.3233,-0.3256,0,-0.2825,-0.2876,-0.2901,-0.2941,-0.2969,-0.2991,-0.3016,-0.3046,-0.3068,-0.3096,-0.312,-0.3152,-0.3157,-0.3172,-0.319,-0.3217,-0.3233,-0.3216,-0.3257,-0.3258,-0.3248,-0.3262,-0.3257,-0.3277,-0.326,-0.326,-0.3261,0,-0.2853,-0.2883,-0.2926,-0.2967,-0.2979,-0.3001,-0.3038,-0.3063,-0.3098,-0.3113,-0.3138,-0.3156,-0.3188,-0.3188,-0.3233,-0.3221,-0.3239,-0.3255,-0.3256,-0.3262,-0.3261,-0.3269,-0.3284,-0.3288,-0.3266,-0.3266,-0.3265,0,-0.2849,-0.2901,-0.2933,-0.295,-0.2998,-0.3013,-0.3034,-0.3068,-0.3089,-0.312,-0.3135,-0.317,-0.319,-0.3217,-0.3245,-0.3241,-0.3288,-0.3289,-0.3302,-0.3301,-0.3311,-0.331,-0.3331,-0.3321,-0.3321,-0.3321,-0.3321,0,-0.2866,-0.2892,-0.2932,-0.2953,-0.2983,-0.3011,-0.304,-0.3062,-0.3093,-0.3119,-0.314,-0.3164,-0.3198,-0.3227,-0.3249,-0.3283,-0.3292,-0.3306,-0.3311,-0.3304,-0.3303,-0.3317,-0.3317,-0.3322,-0.3322,-0.3322,-0.3322,0,-0.2868,-0.2895,-0.2933,-0.2975,-0.2986,-0.3006,-0.3043,-0.3064,-0.3086,-0.3119,-0.3128,-0.3164,-0.3199,-0.3229,-0.3275,-0.329,-0.3326,-0.3332,-0.3314,-0.3317,-0.3329,-0.3328,-0.336,-0.3367,-0.3352,-0.3352,-0.3352,0,-0.2878,-0.2898,-0.2942,-0.296,-0.298,-0.301,-0.3031,-0.3059,-0.3081,-0.3122,-0.3138,-0.3174,-0.3205,-0.326,-0.3291,-0.3326,-0.3335,-0.3343,-0.334,-0.3333,-0.3336,-0.3335,-0.3338,-0.3344,-0.3344,-0.3344,-0.3344,0,-0.2893,-0.2905,-0.2935,-0.2969,-0.2993,-0.3022,-0.3051,-0.3065,-0.3099,-0.3122,-0.3158,-0.3181,-0.3228,-0.3264,-0.3303,-0.3326,-0.3341,-0.3344,-0.335,-0.3343,-0.3332,-0.3339,-0.3316,-0.3344,-0.3344,-0.3344,-0.3344,-0.3344,-0.29,-0.2919,-0.2953,-0.2985,-0.3009,-0.3036,-0.3058,-0.3083,-0.3113,-0.3153,-0.3168,-0.3204,-0.3239,-0.3293,-0.3316,-0.3345,-0.3348,-0.3355,-0.3357,-0.3359,-0.3358,-0.3326,-0.3353,-0.3353,-0.3353,-0.3353,-0.3353,0,-0.2916,-0.2939,-0.2968,-0.3008,-0.3033,-0.3044,-0.3077,-0.3098,-0.3129,-0.316,-0.3189,-0.3231,-0.3266,-0.3299,-0.3337,-0.3354,-0.3362,-0.3363,-0.3362,-0.3368,-0.3353,-0.3345,-0.3356,-0.3356,-0.3356,-0.3356,-0.3356,-0.3356,-0.2928,-0.2962,-0.2978,-0.3025,-0.3047,-0.3082,-0.3101,-0.3126,-0.315,-0.3195,-0.3224,-0.3245,-0.3278,-0.3317,-0.335,-0.336,-0.3373,-0.3372,-0.3383,-0.3369,-0.3369,-0.3368,-0.3361,-0.3374,-0.3374,-0.3396,-0.3396,-0.3396]}]]